Temp
76 76 74 74 74 73 73 74 72 72 73 71 71 71 70 70 70 68 68 69 66 63 63 62 61 63 63 64 64 64 63 63 59 60 61 63 61 61 62 62 63 61 60
78 76 73 71 74 72 72 72 72 71 72 72 72 72 72 72 71 70 69 70 66 63 62 63 63 65 63 64 63 63 62 63 60 57 60 61 60 61 61 61 61 61 61
79 76 73 72 73 71 73 73 74 73 71 71 72 72 72 73 72 71 70 68 67 65 64 64 65 64 64 64 63 62 62 61 60 59 58 60 60 60 60 60 60 60 60
80 76 72 69 72 72 73 74 73 74 72 70 70 73 72 71 72 71 69 69 68 68 68 67 67 65 65 62 62 62 61 60 60 59 58 58 58 59 59 57 56 57 57
80 75 72 70 72 73 72 73 73 72 73 70 71 73 71 69 69 69 69 69 67 67 67 66 63 60 59 61 64 61 61 60 59 58 57 57 56 56 55 56 55 55 56
79 76 76 73 73 70 72 72 71 71 71 70 69 71 68 68 51 54 63 68 66 66 65 67 64 62 57 54 58 58 61 60 59 58 58 57 57 56 56 56 55 54 53
80 77 77 73 73 73 72 72 70 69 69 68 68 67 65 63 50 52 55 67 65 65 64 66 66 66 63 61 53 54 54 53 57 60 58 58 57 58 58 55 55 54 54
80 81 81 77 76 73 71 70 69 67 67 67 68 66 64 60 50 51 54 67 65 65 66 66 63 64 63 64 63 61 60 60 61 61 60 60 59 59 59 58 59 59 60
81 81 81 81 77 75 71 70 68 65 65 66 67 65 63 61 50 49 60 66 64 63 62 63 63 61 48 51 60 58 58 58 52 52 51 49 48 49 56 62 60 60 58
82 82 83 81 78 74 72 70 69 65 64 68 67 66 58 62 47 48 59 65 62 61 61 59 50 56 47 50 60 59 58 58 58 57 55 52 52 52 51 62 64 59 58
85 84 83 79 76 73 72 72 68 66 66 66 65 66 65 63 56 47 51 66 63 61 61 58 57 47 48 51 53 61 58 60 56 60 59 59 59 60 62 62 63 62 62
85 84 81 76 79 76 72 72 69 68 65 64 63 62 65 65 53 49 48 54 54 62 59 60 54 46 48 52 55 48 48 56 62 61 60 60 61 61 63 63 63 63 63
83 80 79 79 77 75 72 71 70 69 67 65 65 65 65 66 62 48 48 48 51 60 61 55 45 45 46 51 47 48 51 63 63 62 61 62 64 65 65 63 62 62 62
80 78 77 77 74 74 75 74 73 71 70 70 68 66 66 66 66 65 62 59 51 57 51 54 54 53 52 56 55 53 67 67 66 64 64 64 63 63 62 62 59 58 57
79 78 76 78 75 75 75 73 76 72 70 73 71 70 67 66 67 62 61 66 67 62 62 62 62 62 61 61 63 64 66 68 66 65 65 64 63 63 62 61 60 58 56
77 78 78 78 76 77 74 70 44 51 48 48 52 67 70 61 49 49 53 50 50 48 65 65 66 66 64 64 64 65 67 64 67 67 65 64 63 63 61 61 60 58 57
77 77 79 76 77 77 77 74 69 56 45 46 50 53 59 55 50 47 46 47 45 49 67 68 68 68 68 68 67 67 66 66 67 65 63 62 62 62 58 62 63 62 60
79 63 80 80 78 79 78 78 77 72 69 67 50 55 46 46 47 46 43 49 62 57 70 69 69 70 70 70 71 70 70 69 68 68 66 66 65 66 65 64 64 61 60
81 81 81 80 82 77 80 79 79 76 74 73 63 54 45 42 42 42 42 67 67 68 69 72 72 73 72 72 70 71 70 71 69 67 66 67 67 67 65 65 64 51 54
81 68 72 81 82 80 81 80 80 78 75 75 70 67 59 53 58 60 61 67 70 71 71 71 74 74 74 74 73 72 71 66 68 69 69 68 67 68 67 66 65 63 59
85 80 68 82 83 82 82 81 81 81 78 77 75 70 52 65 66 66 65 67 70 74 74 74 75 76 74 74 75 74 73 71 70 70 70 69 69 68 67 66 64 63 61
86 83 81 82 84 84 83 83 81 81 81 80 79 69 45 69 71 70 69 69 70 72 75 75 76 77 78 77 76 75 75 74 72 71 70 71 70 69 67 67 66 63 61
88 86 83 83 83 70 76 83 83 82 82 82 82 73 65 70 72 73 72 72 71 71 73 73 75 78 79 77 78 77 77 76 74 74 72 71 70 69 68 63 64 62 61
90 88 86 83 83 84 83 81 83 68 83 83 82 77 71 72 74 74 75 76 75 74 74 75 75 76 77 76 78 78 78 77 74 74 74 72 71 61 69 66 64 63 58
91 87 87 84 83 81 83 82 82 84 82 83 82 81 74 75 76 77 77 78 78 77 77 77 77 77 77 77 78 78 68 46 70 63 72 72 70 68 69 66 63 59 52
87 88 87 88 84 82 81 83 82 82 83 82 83 82 82 78 78 78 78 78 78 79 79 79 78 78 78 78 78 65 46 41 53 47 72 70 69 67 68 65 63 57 50
MSLP
1002.46 1002.82 1003.25 1003.60 1003.85 1004.02 1004.24 1004.26 1004.46 1004.68 1004.68 1004.99 1005.24 1005.38 1005.53 1005.69 1006.06 1006.53 1006.72 1006.70 1007.18 1007.68 1007.74 1007.97 1008.05 1008.06 1007.99 1007.79 1008.04 1008.34 1008.77 1009.02 1010.10 1011.41 1011.94 1012.71 1013.39 1013.78 1014.58 1015.34 1016.23 1016.91 1017.58
1002.17 1002.66 1003.09 1003.69 1003.77 1004.14 1004.20 1004.41 1004.40 1004.64 1004.71 1004.91 1005.08 1005.28 1005.46 1005.67 1005.99 1006.35 1006.64 1006.71 1007.21 1007.40 1007.75 1008.04 1008.09 1007.98 1008.12 1008.22 1008.47 1008.99 1009.49 1009.84 1010.54 1011.41 1012.18 1012.93 1013.67 1014.35 1015.01 1015.58 1016.50 1017.18 1017.99
1001.83 1002.57 1003.07 1003.49 1003.87 1004.16 1004.29 1004.36 1004.49 1004.73 1004.88 1005.04 1005.14 1005.37 1005.69 1005.81 1006.12 1006.56 1006.75 1006.96 1007.09 1007.32 1007.78 1008.00 1007.97 1008.30 1008.48 1008.73 1009.01 1009.51 1010.09 1010.64 1011.19 1011.55 1012.21 1012.97 1013.76 1014.61 1015.36 1016.14 1016.96 1017.84 1018.78
1001.53 1002.40 1003.03 1003.62 1003.93 1004.24 1004.34 1004.39 1004.58 1004.71 1004.99 1005.13 1005.36 1005.56 1005.85 1006.08 1006.37 1006.67 1006.90 1006.99 1007.18 1007.40 1007.67 1007.77 1007.91 1008.31 1008.75 1008.94 1009.37 1009.74 1010.28 1010.98 1011.47 1011.89 1012.60 1013.35 1013.91 1014.90 1015.39 1016.21 1017.47 1018.52 1019.49
1001.26 1002.26 1002.84 1003.59 1003.84 1004.06 1004.42 1004.54 1004.72 1004.83 1005.09 1005.34 1005.55 1005.68 1005.98 1006.48 1006.90 1007.08 1007.14 1007.30 1007.57 1007.73 1007.95 1008.32 1008.71 1008.79 1008.90 1008.91 1009.39 1010.04 1010.59 1011.22 1011.63 1012.20 1013.05 1013.67 1014.67 1015.62 1016.43 1017.42 1018.25 1019.49 1020.53
1001.14 1002.16 1002.61 1003.24 1003.72 1004.15 1004.42 1004.72 1004.97 1005.07 1005.39 1005.66 1005.96 1006.07 1006.73 1007.32 1007.49 1007.59 1007.57 1007.68 1007.99 1008.18 1008.38 1008.54 1009.03 1009.12 1009.20 1009.30 1009.73 1010.30 1010.67 1011.19 1012.02 1012.67 1013.52 1014.20 1015.29 1016.25 1017.18 1017.77 1018.54 1019.58 1020.74
1001.03 1001.85 1002.42 1003.18 1003.56 1003.90 1004.43 1004.86 1005.15 1005.46 1005.71 1006.12 1006.39 1006.72 1007.45 1007.96 1008.03 1008.10 1008.02 1008.18 1008.52 1008.61 1008.71 1008.81 1009.11 1009.47 1009.74 1010.13 1010.48 1010.93 1011.45 1011.78 1012.10 1012.64 1013.66 1014.73 1015.54 1016.41 1017.06 1018.23 1018.69 1019.11 1019.63
1000.80 1001.16 1001.82 1002.75 1003.29 1003.86 1004.49 1005.05 1005.50 1005.83 1006.17 1006.44 1006.75 1007.21 1007.94 1008.65 1008.63 1008.59 1008.45 1008.48 1008.80 1008.95 1008.93 1009.19 1009.57 1009.89 1010.21 1010.43 1010.94 1011.55 1012.18 1012.61 1012.99 1013.47 1014.08 1015.07 1015.68 1016.53 1016.84 1017.34 1018.17 1018.85 1019.50
1000.45 1001.00 1001.51 1002.06 1002.89 1003.63 1004.47 1005.10 1005.73 1006.03 1006.42 1006.72 1007.05 1007.54 1008.37 1008.95 1009.11 1008.97 1008.75 1009.05 1009.36 1009.60 1009.81 1009.94 1010.20 1010.57 1010.76 1011.05 1011.41 1012.01 1012.69 1013.38 1013.77 1014.08 1014.84 1015.56 1016.24 1016.69 1017.12 1017.79 1018.19 1018.51 1019.26
1000.10 1000.77 1001.30 1001.82 1002.66 1003.53 1004.33 1005.12 1005.61 1006.11 1006.53 1006.94 1007.36 1007.77 1008.65 1009.12 1009.48 1009.36 1009.23 1009.58 1009.85 1010.24 1010.57 1010.81 1010.95 1011.23 1011.37 1011.58 1011.84 1012.24 1012.89 1013.63 1014.38 1015.36 1016.11 1016.67 1016.79 1017.27 1017.57 1017.47 1017.67 1018.35 1018.99
999.89 1000.49 1001.20 1001.85 1002.66 1003.62 1004.41 1004.98 1005.61 1006.19 1006.72 1007.10 1007.60 1008.05 1008.66 1009.07 1009.66 1009.53 1009.61 1009.58 1010.09 1010.56 1010.99 1011.42 1011.75 1011.78 1011.87 1012.01 1012.27 1012.63 1013.05 1013.66 1014.50 1015.27 1016.15 1016.83 1017.27 1017.52 1017.53 1017.56 1017.61 1017.93 1018.35
999.65 1000.25 1001.09 1002.03 1002.68 1003.65 1004.46 1004.94 1005.63 1006.16 1006.82 1007.33 1007.74 1008.37 1008.82 1009.28 1009.70 1009.94 1010.11 1010.19 1010.37 1010.59 1011.34 1011.71 1012.15 1012.17 1012.16 1012.48 1012.67 1013.06 1013.67 1014.09 1014.62 1015.35 1015.98 1016.59 1016.97 1017.40 1017.53 1017.70 1017.72 1017.70 1017.56
999.43 1000.15 1001.02 1001.79 1002.67 1003.58 1004.33 1004.86 1005.53 1006.08 1006.67 1007.27 1007.67 1008.10 1008.66 1009.20 1009.96 1010.15 1010.32 1010.65 1010.77 1011.03 1011.47 1011.75 1012.23 1012.43 1012.45 1012.65 1013.00 1013.33 1013.83 1014.28 1014.70 1015.28 1015.86 1016.22 1016.42 1016.75 1016.96 1017.59 1017.75 1017.79 1017.69
999.26 1000.18 1001.01 1001.78 1002.77 1003.43 1004.20 1004.81 1005.11 1005.63 1006.00 1006.47 1007.01 1007.64 1008.30 1008.88 1009.52 1010.10 1010.61 1010.92 1011.14 1011.50 1011.80 1012.26 1012.56 1012.67 1012.78 1012.95 1013.53 1013.77 1013.65 1013.99 1014.44 1014.97 1015.36 1015.64 1015.99 1016.34 1016.80 1017.19 1017.75 1018.07 1018.36
999.10 1000.05 1000.95 1001.66 1002.29 1003.04 1003.85 1004.72 1004.75 1005.02 1005.24 1005.47 1006.14 1006.78 1007.55 1008.32 1008.92 1009.49 1010.19 1010.47 1010.84 1011.23 1011.65 1012.19 1012.40 1012.58 1012.94 1013.22 1013.28 1013.39 1013.44 1013.68 1014.13 1014.42 1014.89 1015.33 1015.89 1016.21 1016.57 1017.01 1017.51 1018.11 1018.42
998.93 999.76 1000.54 1001.31 1002.01 1002.50 1003.45 1004.54 1004.96 1005.02 1005.02 1005.34 1005.62 1006.18 1006.96 1007.60 1008.41 1009.20 1009.82 1010.03 1010.36 1010.81 1011.20 1011.53 1011.68 1012.03 1012.46 1012.74 1012.85 1012.89 1012.78 1013.07 1013.37 1013.64 1014.13 1014.78 1015.37 1015.93 1016.41 1016.82 1017.22 1017.84 1018.13
998.43 999.28 999.99 1000.61 1001.54 1001.84 1002.47 1003.45 1004.69 1006.01 1006.06 1005.69 1005.87 1005.99 1006.54 1007.27 1008.07 1008.86 1009.51 1009.97 1010.21 1010.46 1010.57 1010.65 1010.70 1010.91 1011.36 1011.81 1012.14 1012.27 1012.43 1012.67 1012.90 1013.39 1013.98 1014.58 1015.12 1015.63 1015.97 1016.39 1016.67 1016.91 1017.14
997.86 998.66 999.35 999.95 1000.62 1001.13 1001.74 1002.28 1003.18 1004.41 1005.36 1006.09 1006.33 1006.42 1006.59 1007.16 1007.87 1008.62 1009.28 1009.84 1010.35 1010.56 1010.10 1009.92 1009.90 1009.89 1010.12 1010.56 1010.92 1011.22 1011.48 1011.87 1012.42 1012.85 1013.37 1013.81 1014.26 1014.67 1014.94 1015.17 1015.54 1015.91 1016.25
997.23 997.96 998.64 999.36 999.67 1000.34 1000.83 1001.47 1001.96 1002.86 1003.91 1004.81 1006.24 1006.99 1007.61 1007.84 1008.34 1008.83 1009.11 1009.30 1009.44 1009.57 1009.55 1009.27 1009.10 1009.14 1009.26 1009.55 1009.76 1010.01 1010.34 1010.81 1011.34 1011.81 1012.20 1012.59 1012.95 1013.29 1013.76 1014.24 1014.52 1014.91 1015.44
996.53 997.14 998.06 998.52 998.86 999.52 999.93 1000.45 1000.97 1001.50 1002.51 1003.45 1004.81 1006.10 1007.50 1008.30 1008.81 1008.99 1009.02 1008.74 1008.50 1008.46 1008.53 1008.51 1008.20 1008.11 1008.12 1008.44 1008.83 1009.15 1009.53 1010.07 1010.47 1010.89 1011.27 1011.73 1012.10 1012.45 1012.84 1013.18 1013.54 1014.10 1014.77
995.64 996.76 997.32 997.67 998.21 998.53 999.09 999.52 1000.00 1000.44 1001.14 1002.01 1003.01 1004.56 1005.87 1006.99 1007.31 1007.48 1007.71 1007.69 1007.53 1007.31 1007.38 1007.46 1007.47 1007.34 1007.27 1007.41 1007.85 1008.28 1008.74 1009.20 1009.55 1010.06 1010.65 1011.02 1011.25 1011.67 1012.05 1012.19 1012.73 1013.18 1013.66
994.76 995.75 996.63 997.14 997.26 997.54 998.10 998.57 999.08 999.52 1000.00 1000.64 1001.58 1002.92 1004.58 1005.29 1005.55 1006.02 1006.39 1006.49 1006.40 1006.39 1006.18 1006.29 1006.46 1006.52 1006.64 1006.70 1006.94 1007.30 1007.66 1008.10 1008.47 1008.92 1009.42 1009.83 1010.31 1010.70 1011.03 1011.44 1011.92 1012.51 1013.13
993.80 994.62 995.49 996.25 996.69 996.81 997.41 997.72 998.18 998.66 999.08 999.57 1000.17 1001.51 1003.14 1003.70 1003.94 1004.22 1004.56 1005.02 1005.57 1005.76 1005.85 1005.84 1005.69 1005.51 1005.52 1005.68 1005.94 1006.22 1006.52 1006.88 1007.22 1007.65 1008.16 1008.61 1009.09 1009.57 1010.03 1010.64 1011.18 1011.98 1012.59
992.87 993.35 994.05 995.09 995.72 995.99 996.22 996.83 997.20 997.72 998.08 998.54 999.10 999.99 1001.30 1001.98 1002.34 1002.61 1002.82 1003.27 1003.82 1004.29 1004.63 1004.83 1004.96 1004.99 1004.92 1004.85 1004.97 1005.05 1005.33 1005.74 1006.13 1006.66 1007.03 1007.53 1008.14 1008.78 1009.17 1009.78 1010.45 1011.09 1011.81
991.94 992.61 993.03 993.70 994.65 995.31 995.54 995.75 996.30 996.68 997.23 997.59 997.95 998.51 999.61 1000.24 1000.72 1000.95 1001.25 1001.66 1002.02 1002.47 1002.84 1003.22 1003.48 1003.75 1003.99 1004.23 1004.23 1004.26 1004.35 1004.87 1005.20 1005.57 1005.98 1006.52 1007.00 1007.57 1008.11 1008.75 1009.42 1010.27 1011.60
992.32 992.03 992.60 992.63 993.41 994.17 994.80 994.86 995.20 995.71 996.03 996.59 996.93 997.26 997.69 998.51 999.02 999.49 999.96 1000.31 1000.63 1000.97 1001.34 1001.65 1001.92 1002.28 1002.60 1002.87 1003.12 1003.55 1003.92 1004.35 1004.65 1004.86 1005.15 1005.69 1006.10 1006.49 1006.84 1007.63 1008.60 1009.86 1011.09
Wind_Speed
8 6 7 4 5 4 3 2 4 2 3 6 5 4 4 5 6 5 4 3 7 5 3 3 3 3 2 1 6 5 5 5 8 3 3 9 11 13 13 15 14 13 14
8 8 5 6 6 4 4 3 3 1 4 5 6 4 4 4 5 4 3 5 7 6 4 3 4 3 5 4 5 6 7 6 7 8 3 6 12 13 15 16 11 10 11
9 8 5 8 5 5 4 4 4 2 2 5 4 6 5 4 4 3 4 5 4 6 5 5 5 4 5 5 4 5 6 7 8 7 6 7 8 12 12 13 12 12 9
10 9 7 8 5 5 4 3 4 5 3 6 5 6 5 4 4 4 5 4 5 3 3 3 5 5 5 6 4 6 7 8 8 9 10 9 10 11 12 13 12 9 9
8 10 9 9 6 7 5 4 3 5 5 6 6 4 5 8 5 5 5 6 5 6 5 9 7 8 7 2 7 8 11 9 9 10 10 11 12 11 11 9 12 9 6
8 12 9 7 6 8 7 6 4 6 5 6 5 5 10 7 11 12 5 5 6 5 4 5 6 7 11 11 14 10 11 13 12 9 9 12 9 10 10 10 12 10 6
8 14 11 10 8 4 8 6 7 5 6 6 4 7 10 6 10 9 9 5 5 4 2 4 6 6 9 9 14 16 14 13 11 12 14 11 15 13 11 10 10 6 5
9 9 11 13 9 5 8 7 7 6 6 5 5 9 10 5 7 6 3 6 6 4 5 6 8 7 7 9 11 12 11 11 11 9 12 12 12 12 11 12 12 7 6
11 10 10 12 9 10 10 8 7 5 6 4 6 9 9 5 5 5 4 7 7 9 7 7 7 6 8 12 11 12 11 9 10 16 15 15 13 12 11 10 6 9 7
11 11 9 12 10 10 9 9 7 7 4 6 7 7 10 6 7 7 6 6 7 6 6 7 11 7 9 11 11 12 12 12 14 14 11 10 9 8 11 4 8 8 7
11 11 9 11 10 11 7 7 6 8 7 6 8 7 9 7 5 3 5 5 7 6 6 4 4 8 9 10 10 9 11 14 15 13 11 9 7 7 8 5 4 5 8
12 12 10 13 10 10 8 5 9 8 8 7 8 8 6 6 7 7 6 9 5 7 6 3 4 6 9 11 7 15 15 12 10 10 9 8 8 7 8 5 1 3 2
12 11 11 10 12 11 9 5 8 7 8 7 7 7 7 6 5 5 9 8 5 6 5 6 9 7 8 7 12 17 13 9 9 9 8 8 7 7 7 5 5 5 5
12 12 11 8 12 11 8 6 7 8 8 9 8 8 7 7 7 5 6 3 4 7 8 6 5 5 2 5 5 4 5 8 8 8 7 5 4 4 5 4 4 3 3
11 12 11 9 8 11 9 6 7 2 7 9 9 10 10 8 9 10 10 6 7 8 8 5 4 4 5 4 4 4 4 7 6 6 6 6 6 4 4 4 4 3 3
12 11 10 9 8 9 8 6 11 10 13 12 8 11 9 12 15 14 16 10 11 15 7 6 5 7 7 6 5 4 3 4 5 5 5 5 5 5 4 4 4 4 4
12 11 10 10 10 9 9 9 7 5 9 10 9 10 13 13 19 16 12 9 10 12 5 7 7 8 9 9 7 5 5 4 4 5 4 4 4 4 5 6 7 6 5
13 15 10 10 11 9 10 9 9 8 7 4 4 4 10 17 17 15 13 9 2 4 8 6 6 6 6 9 9 9 8 8 8 8 9 9 9 9 7 8 7 6 6
15 11 11 11 10 12 10 10 9 11 10 8 7 6 7 10 9 10 12 9 9 9 8 8 8 7 8 6 5 5 6 7 9 6 5 7 7 6 6 7 7 9 7
15 14 14 11 9 12 9 10 10 9 11 11 10 9 8 7 8 8 9 10 10 9 10 10 9 8 9 9 7 6 6 5 7 9 8 6 5 7 8 7 8 6 6
12 12 13 8 11 11 11 11 10 9 10 11 12 13 16 11 10 11 11 11 10 10 11 10 10 8 5 5 8 7 8 6 6 7 8 8 7 7 6 6 5 7 5
12 13 12 13 10 11 11 10 10 10 10 11 11 13 20 13 12 11 11 12 12 11 8 9 10 10 9 7 7 8 8 8 7 8 8 9 8 7 6 7 6 5 5
13 14 14 13 12 10 9 11 10 11 11 10 10 11 14 13 13 13 13 13 12 11 11 9 8 9 9 9 10 8 9 10 8 8 9 10 9 8 8 6 6 5 5
14 14 14 14 14 12 11 12 11 12 12 11 10 10 15 14 14 15 13 13 13 14 13 13 13 14 9 8 8 8 10 9 6 6 11 9 9 8 8 6 5 7 5
12 12 12 13 14 15 10 13 12 12 12 11 10 10 13 15 15 14 13 13 12 13 14 14 12 16 18 18 12 10 10 12 12 9 6 7 9 10 9 7 6 5 11
10 8 11 9 12 13 14 10 13 13 12 12 11 11 11 14 14 14 13 12 11 11 14 11 14 20 18 17 19 16 9 9 10 12 9 6 6 6 7 7 10 10 14
Wind_Direction
145 141 141 152 144 128 193 129 106 159 150 141 154 174 181 189 133 139 207 192 109 107 196 198 249 250 301 130 66 66 60 57 109 81 66 120 119 119 122 122 121 124 123
167 131 137 144 116 115 121 119 123 79 148 159 144 141 137 136 140 151 212 121 127 156 191 173 191 110 70 80 84 81 76 74 115 114 121 131 130 127 126 119 119 111 117
160 147 159 114 137 138 118 117 119 127 120 133 137 129 115 149 125 110 113 106 146 144 153 183 142 115 108 92 84 86 92 103 115 122 117 118 120 131 121 113 112 104 103
159 148 120 120 133 126 122 111 126 123 114 134 146 135 155 147 153 141 116 131 108 110 164 120 113 137 122 131 120 110 116 118 122 118 118 117 112 106 99 110 102 91 94
162 137 121 133 156 132 138 121 99 102 87 105 111 136 104 71 66 56 119 93 85 60 63 72 56 63 62 124 138 125 131 125 119 117 113 116 110 115 114 110 103 107 91
161 136 139 125 124 151 133 125 127 126 121 101 87 93 73 75 61 46 62 83 84 77 70 105 120 107 61 76 104 115 137 140 132 121 120 119 109 113 122 123 125 134 128
170 147 160 143 137 182 124 128 113 112 95 103 113 91 89 81 68 60 38 78 115 113 146 99 104 98 90 94 89 93 84 83 103 129 124 128 123 136 132 133 138 133 141
175 165 150 146 148 143 117 118 114 110 110 107 116 98 96 81 55 52 41 86 92 88 77 73 79 88 101 118 113 111 102 105 110 115 116 123 128 141 146 145 151 148 139
175 161 165 142 146 132 122 126 132 123 131 132 103 105 115 115 54 21 104 90 80 68 60 76 93 92 99 106 112 114 108 101 87 100 106 113 123 120 134 149 168 140 138
172 165 170 143 143 119 119 140 146 139 145 131 114 115 117 118 53 32 81 119 106 94 83 74 70 105 115 123 118 125 125 128 124 119 111 109 125 144 167 189 146 147 149
165 160 163 121 117 119 118 125 125 131 129 120 119 122 127 128 77 62 152 128 121 122 112 93 90 98 105 114 120 126 132 136 130 134 139 147 156 168 189 223 242 153 183
160 157 155 136 135 128 133 143 128 125 124 142 125 116 120 108 112 66 96 103 102 129 115 108 101 94 101 110 138 129 126 131 132 140 147 157 166 176 203 207 36 107 39
159 151 146 149 136 140 141 158 132 142 137 150 144 140 144 140 119 125 145 128 83 113 130 130 128 127 97 101 119 135 143 145 142 150 162 171 181 180 175 126 100 80 62
154 147 147 162 145 151 151 177 154 163 160 160 160 149 152 155 148 150 143 151 124 96 107 115 129 124 119 121 117 162 162 151 160 165 177 172 148 152 143 145 143 140 91
154 150 155 169 169 157 166 184 168 109 172 167 169 158 160 171 167 163 157 175 149 152 134 137 163 135 120 150 177 195 214 165 167 167 170 145 146 154 150 146 138 162 147
161 161 164 172 188 167 152 139 37 83 104 83 82 162 169 162 154 161 169 192 163 157 155 172 178 153 153 169 191 219 152 165 156 147 136 144 150 164 164 149 162 175 194
170 167 169 175 177 185 178 165 142 66 50 95 103 114 158 166 163 168 161 151 163 163 191 193 190 177 174 178 186 195 184 181 159 145 141 153 162 184 167 181 199 194 199
174 168 178 193 171 196 187 182 174 166 169 142 37 123 136 154 160 162 147 135 150 230 212 209 220 200 187 185 193 193 192 179 188 188 184 186 191 193 191 195 195 197 195
176 176 189 189 177 190 182 192 190 174 180 179 123 83 77 91 122 144 160 189 192 199 218 224 222 226 192 200 194 195 187 184 181 186 187 178 187 188 195 195 201 202 193
178 184 187 178 198 181 195 189 199 183 177 182 167 161 154 143 167 178 193 204 203 201 206 225 233 236 188 196 198 199 197 188 184 190 197 193 196 200 211 207 202 198 192
177 185 183 213 200 184 193 191 195 200 182 186 182 172 162 179 184 186 189 203 219 212 206 214 228 243 235 193 199 199 205 202 190 188 193 201 205 209 205 214 202 195 200
180 181 187 202 199 199 192 201 193 199 202 190 189 164 165 185 189 193 199 207 211 224 226 210 214 220 231 225 208 207 213 208 201 194 196 200 203 212 208 211 213 208 180
180 186 186 195 219 201 182 198 197 199 203 203 196 152 177 190 195 197 199 203 209 217 228 240 247 232 222 212 212 213 213 215 210 197 199 206 204 203 207 207 207 195 188
193 197 190 191 199 223 197 199 201 198 205 203 200 162 182 191 196 202 202 202 206 207 211 218 230 239 250 225 217 212 210 212 198 205 200 197 205 196 212 209 182 191 158
199 204 206 187 196 204 222 193 202 204 203 210 203 192 180 190 198 205 198 205 208 209 208 210 215 221 228 241 247 228 215 198 205 208 193 193 200 194 199 195 181 144 127
274 209 222 210 189 197 209 220 199 205 206 204 213 207 189 192 198 200 203 207 210 211 212 214 214 215 218 221 229 240 232 202 203 205 199 197 200 201 196 181 169 141 144